Year,Month,Day,Hour,Minute,Value (Times are PST for temperature in C)
2005,09,22,00,00,10.90
2005,09,22,00,01,10.90
2005,09,22,00,02,10.90
2005,09,22,00,03,10.90
2005,09,22,00,04,10.90
2005,09,22,00,05,10.90
2005,09,22,00,06,10.90
2005,09,22,00,07,10.90
2005,09,22,00,08,10.90
2005,09,22,00,09,10.90
2005,09,22,00,10,10.80
2005,09,22,00,11,10.80
2005,09,22,00,12,10.80
2005,09,22,00,13,10.80
2005,09,22,00,14,10.80
2005,09,22,00,15,10.80
2005,09,22,00,16,10.80
2005,09,22,00,17,10.80
2005,09,22,00,18,10.80
2005,09,22,00,19,10.80
2005,09,22,00,20,10.80
2005,09,22,00,21,10.80
2005,09,22,00,22,10.80
2005,09,22,00,23,10.80
2005,09,22,00,24,10.80
2005,09,22,00,25,10.80
2005,09,22,00,26,10.80
2005,09,22,00,27,10.80
2005,09,22,00,28,10.80
2005,09,22,00,29,10.80
2005,09,22,00,30,10.80
2005,09,22,00,31,10.80
2005,09,22,00,32,10.80
2005,09,22,00,33,10.80
2005,09,22,00,34,10.80
2005,09,22,00,35,10.80
2005,09,22,00,36,10.80
2005,09,22,00,37,10.80
2005,09,22,00,38,10.80
2005,09,22,00,39,10.80
2005,09,22,00,40,10.80
2005,09,22,00,41,10.80
2005,09,22,00,42,10.80
2005,09,22,00,43,10.80
2005,09,22,00,44,10.80
2005,09,22,00,45,10.80
2005,09,22,00,46,10.80
2005,09,22,00,47,10.90
2005,09,22,00,48,10.80
2005,09,22,00,49,10.80
2005,09,22,00,50,10.80
2005,09,22,00,51,10.80
2005,09,22,00,52,10.80
2005,09,22,00,53,10.80
2005,09,22,00,54,10.80
2005,09,22,00,55,10.80
2005,09,22,00,56,10.80
2005,09,22,00,57,10.80
2005,09,22,00,58,10.80
2005,09,22,00,59,10.80
2005,09,22,01,00,10.80
2005,09,22,01,01,10.80
2005,09,22,01,02,10.80
2005,09,22,01,03,10.80
2005,09,22,01,04,10.70
2005,09,22,01,05,10.70
2005,09,22,01,06,10.70
2005,09,22,01,07,10.70
2005,09,22,01,08,10.70
2005,09,22,01,09,10.70
2005,09,22,01,10,10.70
2005,09,22,01,11,10.70
2005,09,22,01,12,10.70
2005,09,22,01,13,10.70
2005,09,22,01,14,10.70
2005,09,22,01,15,10.70
2005,09,22,01,16,10.70
2005,09,22,01,17,10.70
2005,09,22,01,18,10.70
2005,09,22,01,19,10.70
2005,09,22,01,20,10.70
2005,09,22,01,21,10.70
2005,09,22,01,22,10.70
2005,09,22,01,23,10.60
2005,09,22,01,24,10.60
2005,09,22,01,25,10.60
2005,09,22,01,26,10.60
2005,09,22,01,27,10.60
2005,09,22,01,28,10.60
2005,09,22,01,29,10.60
2005,09,22,01,30,10.60
2005,09,22,01,31,10.70
2005,09,22,01,32,10.70
2005,09,22,01,33,10.70
2005,09,22,01,34,10.70
2005,09,22,01,35,10.70
2005,09,22,01,36,10.70
2005,09,22,01,37,10.60
2005,09,22,01,38,10.70
2005,09,22,01,39,10.70
2005,09,22,01,40,10.60
2005,09,22,01,41,10.60
2005,09,22,01,42,10.60
2005,09,22,01,43,10.60
2005,09,22,01,44,10.60
2005,09,22,01,45,10.60
2005,09,22,01,46,10.60
2005,09,22,01,47,10.60
2005,09,22,01,48,10.60
2005,09,22,01,49,10.60
2005,09,22,01,50,10.60
2005,09,22,01,51,10.60
2005,09,22,01,52,10.60
2005,09,22,01,53,10.60
2005,09,22,01,54,10.60
2005,09,22,01,55,10.60
2005,09,22,01,56,10.60
2005,09,22,01,57,10.60
2005,09,22,01,58,10.60
2005,09,22,01,59,10.60
2005,09,22,02,00,10.60
2005,09,22,02,01,10.60
2005,09,22,02,02,10.60
2005,09,22,02,03,10.60
2005,09,22,02,04,10.60
2005,09,22,02,05,10.60
2005,09,22,02,06,10.60
2005,09,22,02,07,10.60
2005,09,22,02,08,10.60
2005,09,22,02,09,10.60
2005,09,22,02,10,10.60
2005,09,22,02,11,10.60
2005,09,22,02,12,10.60
2005,09,22,02,13,10.60
2005,09,22,02,14,10.60
2005,09,22,02,15,10.60
2005,09,22,02,16,10.60
2005,09,22,02,17,10.60
2005,09,22,02,18,10.60
2005,09,22,02,19,10.60
2005,09,22,02,20,10.60
2005,09,22,02,21,10.60
2005,09,22,02,22,10.70
2005,09,22,02,23,10.70
2005,09,22,02,24,10.80
2005,09,22,02,25,10.80
2005,09,22,02,26,10.80
2005,09,22,02,27,10.80
2005,09,22,02,28,10.70
2005,09,22,02,29,10.70
2005,09,22,02,30,10.70
2005,09,22,02,31,10.70
2005,09,22,02,32,10.70
2005,09,22,02,33,10.60
2005,09,22,02,34,10.60
2005,09,22,02,35,10.60
2005,09,22,02,36,10.60
2005,09,22,02,37,10.60
2005,09,22,02,38,10.60
2005,09,22,02,39,10.60
2005,09,22,02,40,10.60
2005,09,22,02,41,10.60
2005,09,22,02,42,10.40
2005,09,22,02,43,10.60
2005,09,22,02,44,10.60
2005,09,22,02,45,10.60
2005,09,22,02,46,10.60
2005,09,22,02,47,10.60
2005,09,22,02,48,10.60
2005,09,22,02,49,10.60
2005,09,22,02,50,10.60
2005,09,22,02,51,10.60
2005,09,22,02,52,10.60
2005,09,22,02,53,10.60
2005,09,22,02,54,10.60
2005,09,22,02,55,10.60
2005,09,22,02,56,10.60
2005,09,22,02,57,10.60
2005,09,22,02,58,10.60
2005,09,22,02,59,10.60
2005,09,22,03,00,10.60
2005,09,22,03,01,10.60
2005,09,22,03,02,10.60
2005,09,22,03,03,10.60
2005,09,22,03,04,10.60
2005,09,22,03,05,10.60
2005,09,22,03,06,10.60
2005,09,22,03,07,10.60
2005,09,22,03,08,10.60
2005,09,22,03,09,10.60
2005,09,22,03,10,10.60
2005,09,22,03,11,10.50
2005,09,22,03,12,10.40
2005,09,22,03,13,10.40
2005,09,22,03,14,10.40
2005,09,22,03,15,10.30
2005,09,22,03,16,10.30
2005,09,22,03,17,10.20
2005,09,22,03,18,10.20
2005,09,22,03,19,10.10
2005,09,22,03,20,10.10
2005,09,22,03,21,10.10
2005,09,22,03,22,10.00
2005,09,22,03,23,9.90
2005,09,22,03,24,9.90
2005,09,22,03,25,9.90
2005,09,22,03,26,9.90
2005,09,22,03,27,9.90
2005,09,22,03,28,9.80
2005,09,22,03,29,9.80
2005,09,22,03,30,9.80
2005,09,22,03,31,9.80
2005,09,22,03,32,9.70
2005,09,22,03,33,9.70
2005,09,22,03,34,9.70
2005,09,22,03,35,9.70
2005,09,22,03,36,9.70
2005,09,22,03,37,9.70
2005,09,22,03,38,9.70
2005,09,22,03,39,9.70
2005,09,22,03,40,9.70
2005,09,22,03,41,9.70
2005,09,22,03,42,9.60
2005,09,22,03,43,9.70
2005,09,22,03,44,9.70
2005,09,22,03,45,9.70
2005,09,22,03,46,9.70
2005,09,22,03,47,9.70
2005,09,22,03,48,9.70
2005,09,22,03,49,9.70
2005,09,22,03,50,9.70
2005,09,22,03,51,9.70
2005,09,22,03,52,9.70
2005,09,22,03,53,9.60
2005,09,22,03,54,9.60
2005,09,22,03,55,9.60
2005,09,22,03,56,9.60
2005,09,22,03,57,9.60
2005,09,22,03,58,9.60
2005,09,22,03,59,9.60
2005,09,22,04,00,9.50
2005,09,22,04,01,9.50
2005,09,22,04,02,9.50
2005,09,22,04,03,9.50
2005,09,22,04,04,9.50
2005,09,22,04,05,9.50
2005,09,22,04,06,9.50
2005,09,22,04,07,9.40
2005,09,22,04,08,9.40
2005,09,22,04,09,9.40
2005,09,22,04,10,9.40
2005,09,22,04,11,9.40
2005,09,22,04,12,9.30
2005,09,22,04,13,9.30
2005,09,22,04,14,9.30
2005,09,22,04,15,9.30
2005,09,22,04,16,9.30
2005,09,22,04,17,9.30
2005,09,22,04,18,9.20
2005,09,22,04,19,9.20
2005,09,22,04,20,9.20
2005,09,22,04,21,9.20
2005,09,22,04,22,9.20
2005,09,22,04,23,9.20
2005,09,22,04,24,9.20
2005,09,22,04,25,9.20
2005,09,22,04,26,9.20
2005,09,22,04,27,9.20
2005,09,22,04,28,9.20
2005,09,22,04,29,9.20
2005,09,22,04,30,9.20
2005,09,22,04,31,9.20
2005,09,22,04,32,9.20
2005,09,22,04,33,9.30
2005,09,22,04,34,9.30
2005,09,22,04,35,9.30
2005,09,22,04,36,9.30
2005,09,22,04,37,9.30
2005,09,22,04,38,9.30
2005,09,22,04,39,9.30
2005,09,22,04,40,9.30
2005,09,22,04,41,9.20
2005,09,22,04,42,9.20
2005,09,22,04,43,9.20
2005,09,22,04,44,9.20
2005,09,22,04,45,9.20
2005,09,22,04,46,9.20
2005,09,22,04,47,9.20
2005,09,22,04,48,9.20
2005,09,22,04,49,9.20
2005,09,22,04,50,9.20
2005,09,22,04,51,9.20
2005,09,22,04,52,9.20
2005,09,22,04,53,9.20
2005,09,22,04,54,9.20
2005,09,22,04,55,9.20
2005,09,22,04,56,9.20
2005,09,22,04,57,9.20
2005,09,22,04,58,9.30
2005,09,22,04,59,9.30
2005,09,22,05,00,9.30
2005,09,22,05,01,9.30
2005,09,22,05,02,9.30
2005,09,22,05,03,9.30
2005,09,22,05,04,9.20
2005,09,22,05,05,9.20
2005,09,22,05,06,9.20
2005,09,22,05,07,9.20
2005,09,22,05,08,9.20
2005,09,22,05,09,9.20
2005,09,22,05,10,9.20
2005,09,22,05,11,9.20
2005,09,22,05,12,9.20
2005,09,22,05,13,9.10
2005,09,22,05,14,9.10
2005,09,22,05,15,9.10
2005,09,22,05,16,9.10
2005,09,22,05,17,9.00
2005,09,22,05,18,9.00
2005,09,22,05,19,9.00
2005,09,22,05,20,9.00
2005,09,22,05,21,8.90
2005,09,22,05,22,8.90
2005,09,22,05,23,8.90
2005,09,22,05,24,8.90
2005,09,22,05,25,8.90
2005,09,22,05,26,8.80
2005,09,22,05,27,8.80
2005,09,22,05,28,8.80
2005,09,22,05,29,8.80
2005,09,22,05,30,8.80
2005,09,22,05,31,8.70
2005,09,22,05,32,8.70
2005,09,22,05,33,8.80
2005,09,22,05,34,8.80
2005,09,22,05,35,8.80
2005,09,22,05,36,8.70
2005,09,22,05,37,8.70
2005,09,22,05,38,8.70
2005,09,22,05,39,8.70
2005,09,22,05,40,8.70
2005,09,22,05,41,8.70
2005,09,22,05,42,8.70
2005,09,22,05,43,8.70
2005,09,22,05,44,8.70
2005,09,22,05,45,8.70
2005,09,22,05,46,8.70
2005,09,22,05,47,8.70
2005,09,22,05,48,8.70
2005,09,22,05,49,8.70
2005,09,22,05,50,8.70
2005,09,22,05,51,8.70
2005,09,22,05,52,8.70
2005,09,22,05,53,8.70
2005,09,22,05,54,8.70
2005,09,22,05,55,8.70
2005,09,22,05,56,8.70
2005,09,22,05,57,8.70
2005,09,22,05,58,8.70
2005,09,22,05,59,8.70
2005,09,22,06,00,8.70
2005,09,22,06,01,8.70
2005,09,22,06,02,8.70
2005,09,22,06,03,8.60
2005,09,22,06,04,8.50
2005,09,22,06,05,8.50
2005,09,22,06,06,8.50
2005,09,22,06,07,8.40
2005,09,22,06,08,8.40
2005,09,22,06,09,8.40
2005,09,22,06,10,8.40
2005,09,22,06,11,8.30
2005,09,22,06,12,8.30
2005,09,22,06,13,8.30
2005,09,22,06,14,8.30
2005,09,22,06,15,8.20
2005,09,22,06,16,8.20
2005,09,22,06,17,8.20
2005,09,22,06,18,8.20
2005,09,22,06,19,8.20
2005,09,22,06,20,8.20
2005,09,22,06,21,8.20
2005,09,22,06,22,8.20
2005,09,22,06,23,8.10
2005,09,22,06,24,8.10
2005,09,22,06,25,8.10
2005,09,22,06,26,8.10
2005,09,22,06,27,8.00
2005,09,22,06,28,8.00
2005,09,22,06,29,8.00
2005,09,22,06,30,8.00
2005,09,22,06,31,7.90
2005,09,22,06,32,7.90
2005,09,22,06,33,7.90
2005,09,22,06,34,7.90
2005,09,22,06,35,7.90
2005,09,22,06,36,7.90
2005,09,22,06,37,7.90
2005,09,22,06,38,7.90
2005,09,22,06,39,7.90
2005,09,22,06,40,7.80
2005,09,22,06,41,7.80
2005,09,22,06,42,7.70
2005,09,22,06,43,7.70
2005,09,22,06,44,7.60
2005,09,22,06,45,7.60
2005,09,22,06,46,7.50
2005,09,22,06,47,7.50
2005,09,22,06,48,7.50
2005,09,22,06,49,7.40
2005,09,22,06,50,7.40
2005,09,22,06,51,7.30
2005,09,22,06,52,7.30
2005,09,22,06,53,7.30
2005,09,22,06,54,7.30
2005,09,22,06,55,7.30
2005,09,22,06,56,7.30
2005,09,22,06,57,7.30
2005,09,22,06,58,7.30
2005,09,22,06,59,7.30
2005,09,22,07,00,7.30
2005,09,22,07,01,7.30
2005,09,22,07,02,7.20
2005,09,22,07,03,7.20
2005,09,22,07,04,7.20
2005,09,22,07,05,7.20
2005,09,22,07,06,7.20
2005,09,22,07,07,7.20
2005,09,22,07,08,7.20
2005,09,22,07,09,7.20
2005,09,22,07,10,7.20
2005,09,22,07,11,7.20
2005,09,22,07,12,7.20
2005,09,22,07,13,7.20
2005,09,22,07,14,7.20
2005,09,22,07,15,7.20
2005,09,22,07,16,7.20
2005,09,22,07,17,7.20
2005,09,22,07,18,7.20
2005,09,22,07,19,7.30
2005,09,22,07,20,7.30
2005,09,22,07,21,7.30
2005,09,22,07,22,7.30
2005,09,22,07,23,7.30
2005,09,22,07,24,7.30
2005,09,22,07,25,7.30
2005,09,22,07,26,7.30
2005,09,22,07,27,7.30
2005,09,22,07,28,7.30
2005,09,22,07,29,7.30
2005,09,22,07,30,7.30
2005,09,22,07,31,7.40
2005,09,22,07,32,7.50
2005,09,22,07,33,7.50
2005,09,22,07,34,7.60
2005,09,22,07,35,7.60
2005,09,22,07,36,7.70
2005,09,22,07,37,7.80
2005,09,22,07,38,7.80
2005,09,22,07,39,7.90
2005,09,22,07,40,7.90
2005,09,22,07,41,8.00
2005,09,22,07,42,8.00
2005,09,22,07,43,8.10
2005,09,22,07,44,8.10
2005,09,22,07,45,8.20
2005,09,22,07,46,8.20
2005,09,22,07,47,8.30
2005,09,22,07,48,8.30
2005,09,22,07,49,8.40
2005,09,22,07,50,8.50
2005,09,22,07,51,8.50
2005,09,22,07,52,8.60
2005,09,22,07,53,8.60
2005,09,22,07,54,8.70
2005,09,22,07,55,8.80
2005,09,22,07,56,8.90
2005,09,22,07,57,9.00
2005,09,22,07,58,9.10
2005,09,22,07,59,9.20
2005,09,22,08,00,9.20
2005,09,22,08,01,9.30
2005,09,22,08,02,9.40
2005,09,22,08,03,9.40
2005,09,22,08,04,9.50
2005,09,22,08,05,9.60
2005,09,22,08,06,9.60
2005,09,22,08,07,9.70
2005,09,22,08,08,9.70
2005,09,22,08,09,9.80
2005,09,22,08,10,9.80
2005,09,22,08,11,9.90
2005,09,22,08,12,9.90
2005,09,22,08,13,9.90
2005,09,22,08,14,9.90
2005,09,22,08,15,9.90
2005,09,22,08,16,9.90
2005,09,22,08,17,9.90
2005,09,22,08,18,9.90
2005,09,22,08,19,9.90
2005,09,22,08,20,9.90
2005,09,22,08,21,9.90
2005,09,22,08,22,9.90
2005,09,22,08,23,10.00
2005,09,22,08,24,10.10
2005,09,22,08,25,10.20
2005,09,22,08,26,10.20
2005,09,22,08,27,10.30
2005,09,22,08,28,10.40
2005,09,22,08,29,10.40
2005,09,22,08,30,10.40
2005,09,22,08,31,10.40
2005,09,22,08,32,10.40
2005,09,22,08,33,10.40
2005,09,22,08,34,10.50
2005,09,22,08,35,10.60
2005,09,22,08,36,10.60
2005,09,22,08,37,10.60
2005,09,22,08,38,10.60
2005,09,22,08,39,10.60
2005,09,22,08,40,10.70
2005,09,22,08,41,10.70
2005,09,22,08,42,10.70
2005,09,22,08,43,10.80
2005,09,22,08,44,10.80
2005,09,22,08,45,10.90
2005,09,22,08,46,10.90
2005,09,22,08,47,10.90
2005,09,22,08,48,11.00
2005,09,22,08,49,11.10
2005,09,22,08,50,11.20
2005,09,22,08,51,11.20
2005,09,22,08,52,11.30
2005,09,22,08,53,11.40
2005,09,22,08,54,11.40
2005,09,22,08,55,11.60
2005,09,22,08,56,11.60
2005,09,22,08,57,11.70
2005,09,22,08,58,11.70
2005,09,22,08,59,11.80
2005,09,22,09,00,11.80
2005,09,22,09,01,11.90
2005,09,22,09,02,12.00
2005,09,22,09,03,12.00
2005,09,22,09,04,12.00
2005,09,22,09,05,12.00
2005,09,22,09,06,12.00
2005,09,22,09,07,12.00
2005,09,22,09,08,12.00
2005,09,22,09,09,12.20
2005,09,22,09,10,12.40
2005,09,22,09,11,12.40
2005,09,22,09,12,12.40
2005,09,22,09,13,12.40
2005,09,22,09,14,12.40
2005,09,22,09,15,12.40
2005,09,22,09,16,12.40
2005,09,22,09,17,12.40
2005,09,22,09,18,12.30
2005,09,22,09,19,12.30
2005,09,22,09,20,12.30
2005,09,22,09,21,12.20
2005,09,22,09,22,12.20
2005,09,22,09,23,12.20
2005,09,22,09,24,12.30
2005,09,22,09,25,12.30
2005,09,22,09,26,12.40
2005,09,22,09,27,12.50
2005,09,22,09,28,12.60
2005,09,22,09,29,12.70
2005,09,22,09,30,12.80
2005,09,22,09,31,12.80
2005,09,22,09,32,12.80
2005,09,22,09,33,12.90
2005,09,22,09,34,13.00
2005,09,22,09,35,13.10
2005,09,22,09,36,13.20
2005,09,22,09,37,13.20
2005,09,22,09,38,13.30
2005,09,22,09,39,13.30
2005,09,22,09,40,13.40
2005,09,22,09,41,13.40
2005,09,22,09,42,13.50
2005,09,22,09,43,13.50
2005,09,22,09,44,13.50
2005,09,22,09,45,13.60
2005,09,22,09,46,13.60
2005,09,22,09,47,13.60
2005,09,22,09,48,13.70
2005,09,22,09,49,13.70
2005,09,22,09,50,13.70
2005,09,22,09,51,13.70
2005,09,22,09,52,13.70
2005,09,22,09,53,13.70
2005,09,22,09,54,13.70
2005,09,22,09,55,13.80
2005,09,22,09,56,13.80
2005,09,22,09,57,13.80
2005,09,22,09,58,13.80
2005,09,22,09,59,13.90
2005,09,22,10,00,13.90
2005,09,22,10,01,13.90
2005,09,22,10,02,13.90
2005,09,22,10,03,13.90
2005,09,22,10,04,13.90
2005,09,22,10,05,13.90
2005,09,22,10,06,13.90
2005,09,22,10,07,14.00
2005,09,22,10,08,14.00
2005,09,22,10,09,14.00
2005,09,22,10,10,14.00
2005,09,22,10,11,14.00
2005,09,22,10,12,14.00
2005,09,22,10,13,14.00
2005,09,22,10,14,14.10
2005,09,22,10,15,14.10
2005,09,22,10,16,14.10
2005,09,22,10,17,14.10
2005,09,22,10,18,14.10
2005,09,22,10,19,14.10
2005,09,22,10,20,14.20
2005,09,22,10,21,14.20
2005,09,22,10,22,14.20
2005,09,22,10,23,14.20
2005,09,22,10,24,14.20
2005,09,22,10,25,14.20
2005,09,22,10,26,14.20
2005,09,22,10,27,14.20
2005,09,22,10,28,14.20
2005,09,22,10,29,14.20
2005,09,22,10,30,14.30
2005,09,22,10,31,14.40
2005,09,22,10,32,14.50
2005,09,22,10,33,14.50
2005,09,22,10,34,14.60
2005,09,22,10,35,14.60
2005,09,22,10,36,14.60
2005,09,22,10,37,14.70
2005,09,22,10,38,14.80
2005,09,22,10,39,14.70
2005,09,22,10,40,14.70
2005,09,22,10,41,14.70
2005,09,22,10,42,14.50
2005,09,22,10,43,14.40
2005,09,22,10,44,14.30
2005,09,22,10,45,14.30
2005,09,22,10,46,14.20
2005,09,22,10,47,14.20
2005,09,22,10,48,14.30
2005,09,22,10,49,14.40
2005,09,22,10,50,14.40
2005,09,22,10,51,14.30
2005,09,22,10,52,14.30
2005,09,22,10,53,14.40
2005,09,22,10,54,14.50
2005,09,22,10,55,14.50
2005,09,22,10,56,14.50
2005,09,22,10,57,14.50
2005,09,22,10,58,14.60
2005,09,22,10,59,14.50
2005,09,22,11,00,14.50
2005,09,22,11,01,14.50
2005,09,22,11,02,14.60
2005,09,22,11,03,14.60
2005,09,22,11,04,14.70
2005,09,22,11,05,14.70
2005,09,22,11,06,14.70
2005,09,22,11,07,14.70
2005,09,22,11,08,14.70
2005,09,22,11,09,14.70
2005,09,22,11,10,14.70
2005,09,22,11,11,14.60
2005,09,22,11,12,14.40
2005,09,22,11,13,14.10
2005,09,22,11,14,13.90
2005,09,22,11,15,13.70
2005,09,22,11,16,13.40
2005,09,22,11,17,13.20
2005,09,22,11,18,12.90
2005,09,22,11,19,12.70
2005,09,22,11,20,12.60
2005,09,22,11,21,12.40
2005,09,22,11,22,12.30
2005,09,22,11,23,12.30
2005,09,22,11,24,12.30
2005,09,22,11,25,12.30
2005,09,22,11,26,12.20
2005,09,22,11,27,12.20
2005,09,22,11,28,12.20
2005,09,22,11,29,12.20
2005,09,22,11,30,12.30
2005,09,22,11,31,12.30
2005,09,22,11,32,12.30
2005,09,22,11,33,12.30
2005,09,22,11,34,12.30
2005,09,22,11,35,12.40
2005,09,22,11,36,12.50
2005,09,22,11,37,12.60
2005,09,22,11,38,12.60
2005,09,22,11,39,12.70
2005,09,22,11,40,12.80
2005,09,22,11,41,12.90
2005,09,22,11,42,13.00
2005,09,22,11,43,13.10
2005,09,22,11,44,13.30
2005,09,22,11,45,13.30
2005,09,22,11,46,13.50
2005,09,22,11,47,13.60
2005,09,22,11,48,13.70
2005,09,22,11,49,13.70
2005,09,22,11,50,13.80
2005,09,22,11,51,13.80
2005,09,22,11,52,13.90
2005,09,22,11,53,13.90
2005,09,22,11,54,14.00
2005,09,22,11,55,14.10
2005,09,22,11,56,14.20
2005,09,22,11,57,14.20
2005,09,22,11,58,14.30
2005,09,22,11,59,14.40
2005,09,22,12,00,14.50
2005,09,22,12,01,14.50
2005,09,22,12,02,14.60
2005,09,22,12,03,14.70
2005,09,22,12,04,14.70
2005,09,22,12,05,14.70
2005,09,22,12,06,14.80
2005,09,22,12,07,14.80
2005,09,22,12,08,14.80
2005,09,22,12,09,14.90
2005,09,22,12,10,15.00
2005,09,22,12,11,15.00
2005,09,22,12,12,15.00
2005,09,22,12,13,15.00
2005,09,22,12,14,15.00
2005,09,22,12,15,15.00
2005,09,22,12,16,14.90
2005,09,22,12,17,14.90
2005,09,22,12,18,15.00
2005,09,22,12,19,15.00
2005,09,22,12,20,15.00
2005,09,22,12,21,15.10
2005,09,22,12,22,15.10
2005,09,22,12,23,15.20
2005,09,22,12,24,15.30
2005,09,22,12,25,15.30
2005,09,22,12,26,15.30
2005,09,22,12,27,15.40
2005,09,22,12,28,15.40
2005,09,22,12,29,15.40
2005,09,22,12,30,15.30
2005,09,22,12,31,15.30
2005,09,22,12,32,15.20
2005,09,22,12,33,15.20
2005,09,22,12,34,15.20
2005,09,22,12,35,15.20
2005,09,22,12,36,15.30
2005,09,22,12,37,15.50
2005,09,22,12,38,15.50
2005,09,22,12,39,15.30
2005,09,22,12,40,15.20
2005,09,22,12,41,14.90
2005,09,22,12,42,14.70
2005,09,22,12,43,14.40
2005,09,22,12,44,14.20
2005,09,22,12,45,14.00
2005,09,22,12,46,13.90
2005,09,22,12,47,13.90
2005,09,22,12,48,13.80
2005,09,22,12,49,13.80
2005,09,22,12,50,13.90
2005,09,22,12,51,14.00
2005,09,22,12,52,14.10
2005,09,22,12,53,14.30
2005,09,22,12,54,14.50
2005,09,22,12,55,14.80
2005,09,22,12,56,15.10
2005,09,22,12,57,15.30
2005,09,22,12,58,15.30
2005,09,22,12,59,15.20
2005,09,22,13,00,15.00
2005,09,22,13,01,14.80
2005,09,22,13,02,14.60
2005,09,22,13,03,14.50
2005,09,22,13,04,14.20
2005,09,22,13,05,14.00
2005,09,22,13,06,13.80
2005,09,22,13,07,13.70
2005,09,22,13,08,13.70
2005,09,22,13,09,13.70
2005,09,22,13,10,13.80
2005,09,22,13,11,13.80
2005,09,22,13,12,13.90
2005,09,22,13,13,13.90
2005,09,22,13,14,14.00
2005,09,22,13,15,14.10
2005,09,22,13,16,14.20
2005,09,22,13,17,14.20
2005,09,22,13,18,14.20
2005,09,22,13,19,14.20
2005,09,22,13,20,14.10
2005,09,22,13,21,14.10
2005,09,22,13,22,14.10
2005,09,22,13,23,14.20
2005,09,22,13,24,14.30
2005,09,22,13,25,14.40
2005,09,22,13,26,14.40
2005,09,22,13,27,14.40
2005,09,22,13,28,14.40
2005,09,22,13,29,14.40
2005,09,22,13,30,14.40
2005,09,22,13,31,14.40
2005,09,22,13,32,14.40
2005,09,22,13,33,14.30
2005,09,22,13,34,14.20
2005,09,22,13,35,14.20
2005,09,22,13,36,14.20
2005,09,22,13,37,14.20
2005,09,22,13,38,14.20
2005,09,22,13,39,14.20
2005,09,22,13,40,14.30
2005,09,22,13,41,14.30
2005,09,22,13,42,14.40
2005,09,22,13,43,14.40
2005,09,22,13,44,14.50
2005,09,22,13,45,14.60
2005,09,22,13,46,14.60
2005,09,22,13,47,14.60
2005,09,22,13,48,14.60
2005,09,22,13,49,14.70
2005,09,22,13,50,14.70
2005,09,22,13,51,14.80
2005,09,22,13,52,14.80
2005,09,22,13,53,14.90
2005,09,22,13,54,15.00
2005,09,22,13,55,15.00
2005,09,22,13,56,15.10
2005,09,22,13,57,15.20
2005,09,22,13,58,15.20
2005,09,22,13,59,15.30
2005,09,22,14,00,15.30
2005,09,22,14,01,15.30
2005,09,22,14,02,15.20
2005,09,22,14,03,15.20
2005,09,22,14,04,15.20
2005,09,22,14,05,15.20
2005,09,22,14,06,15.30
2005,09,22,14,07,15.40
2005,09,22,14,08,15.50
2005,09,22,14,09,15.60
2005,09,22,14,10,15.70
2005,09,22,14,11,15.90
2005,09,22,14,12,16.10
2005,09,22,14,13,16.20
2005,09,22,14,14,16.40
2005,09,22,14,15,16.40
2005,09,22,14,16,16.60
2005,09,22,14,17,16.50
2005,09,22,14,18,16.30
2005,09,22,14,19,16.20
2005,09,22,14,20,16.10
2005,09,22,14,21,16.00
2005,09,22,14,22,15.90
2005,09,22,14,23,15.80
2005,09,22,14,24,15.70
2005,09,22,14,25,15.70
2005,09,22,14,26,15.70
2005,09,22,14,27,15.70
2005,09,22,14,28,15.90
2005,09,22,14,29,16.10
2005,09,22,14,30,16.30
2005,09,22,14,31,16.20
2005,09,22,14,32,16.20
2005,09,22,14,33,16.20
2005,09,22,14,34,16.10
2005,09,22,14,35,16.20
2005,09,22,14,36,16.20
2005,09,22,14,37,16.10
2005,09,22,14,38,16.10
2005,09,22,14,39,16.10
2005,09,22,14,40,16.10
2005,09,22,14,41,16.10
2005,09,22,14,42,16.10
2005,09,22,14,43,16.10
2005,09,22,14,44,16.10
2005,09,22,14,45,16.10
2005,09,22,14,46,16.10
2005,09,22,14,47,16.50
2005,09,22,14,48,16.60
2005,09,22,14,49,16.60
2005,09,22,14,50,16.60
2005,09,22,14,51,16.70
2005,09,22,14,52,16.70
2005,09,22,14,53,16.80
2005,09,22,14,54,16.70
2005,09,22,14,55,16.70
2005,09,22,14,56,16.70
2005,09,22,14,57,16.70
2005,09,22,14,58,16.70
2005,09,22,14,59,16.80
2005,09,22,15,00,16.80
2005,09,22,15,01,16.80
2005,09,22,15,02,16.90
2005,09,22,15,03,17.00
2005,09,22,15,04,17.10
2005,09,22,15,05,17.00
2005,09,22,15,06,17.00
2005,09,22,15,07,17.00
2005,09,22,15,08,16.80
2005,09,22,15,09,16.70
2005,09,22,15,10,16.80
2005,09,22,15,11,16.90
2005,09,22,15,12,16.90
2005,09,22,15,13,17.00
2005,09,22,15,14,17.10
2005,09,22,15,15,17.20
2005,09,22,15,16,17.30
2005,09,22,15,17,17.40
2005,09,22,15,18,17.40
2005,09,22,15,19,17.50
2005,09,22,15,20,17.60
2005,09,22,15,21,17.60
2005,09,22,15,22,17.50
2005,09,22,15,23,17.60
2005,09,22,15,24,17.50
2005,09,22,15,25,17.50
2005,09,22,15,26,17.40
2005,09,22,15,27,17.40
2005,09,22,15,28,17.30
2005,09,22,15,29,17.30
2005,09,22,15,30,17.30
2005,09,22,15,31,17.30
2005,09,22,15,32,17.30
2005,09,22,15,33,17.20
2005,09,22,15,34,17.10
2005,09,22,15,35,17.00
2005,09,22,15,36,16.80
2005,09,22,15,37,16.70
2005,09,22,15,38,16.50
2005,09,22,15,39,16.40
2005,09,22,15,40,16.40
2005,09,22,15,41,16.40
2005,09,22,15,42,16.40
2005,09,22,15,43,16.40
2005,09,22,15,44,16.40
2005,09,22,15,45,16.40
2005,09,22,15,46,16.40
2005,09,22,15,47,16.40
2005,09,22,15,48,16.40
2005,09,22,15,49,16.40
2005,09,22,15,50,16.30
2005,09,22,15,51,16.20
2005,09,22,15,52,16.10
2005,09,22,15,53,16.00
2005,09,22,15,54,15.90
2005,09,22,15,55,15.90
2005,09,22,15,56,15.90
2005,09,22,15,57,15.80
2005,09,22,15,58,15.80
2005,09,22,15,59,15.80
2005,09,22,16,00,15.90
2005,09,22,16,01,15.90
2005,09,22,16,02,16.00
2005,09,22,16,03,16.10
2005,09,22,16,04,16.20
2005,09,22,16,05,16.30
2005,09,22,16,06,16.40
2005,09,22,16,07,16.50
2005,09,22,16,08,16.60
2005,09,22,16,09,16.60
2005,09,22,16,10,16.60
2005,09,22,16,11,16.50
2005,09,22,16,12,16.30
2005,09,22,16,13,16.10
2005,09,22,16,14,16.00
2005,09,22,16,15,15.90
2005,09,22,16,16,16.00
2005,09,22,16,17,16.10
2005,09,22,16,18,16.10
2005,09,22,16,19,16.20
2005,09,22,16,20,16.40
2005,09,22,16,21,16.40
2005,09,22,16,22,16.40
2005,09,22,16,23,16.40
2005,09,22,16,24,16.40
2005,09,22,16,25,16.50
2005,09,22,16,26,16.50
2005,09,22,16,27,16.40
2005,09,22,16,28,16.40
2005,09,22,16,29,16.40
2005,09,22,16,30,16.40
2005,09,22,16,31,16.40
2005,09,22,16,32,16.40
2005,09,22,16,33,16.40
2005,09,22,16,34,16.40
2005,09,22,16,35,16.40
2005,09,22,16,36,16.40
2005,09,22,16,37,16.40
2005,09,22,16,38,16.40
2005,09,22,16,39,16.30
2005,09,22,16,40,16.10
2005,09,22,16,41,16.00
2005,09,22,16,42,15.90
2005,09,22,16,43,16.00
2005,09,22,16,44,16.10
2005,09,22,16,45,16.10
2005,09,22,16,46,16.20
2005,09,22,16,47,16.30
2005,09,22,16,48,16.30
2005,09,22,16,49,16.20
2005,09,22,16,50,16.10
2005,09,22,16,51,15.90
2005,09,22,16,52,15.70
2005,09,22,16,53,15.60
2005,09,22,16,54,15.60
2005,09,22,16,55,15.70
2005,09,22,16,56,15.70
2005,09,22,16,57,15.70
2005,09,22,16,58,15.60
2005,09,22,16,59,15.50
2005,09,22,17,00,15.40
2005,09,22,17,01,15.30
2005,09,22,17,02,15.20
2005,09,22,17,03,15.00
2005,09,22,17,04,14.90
2005,09,22,17,05,14.90
2005,09,22,17,06,14.80
2005,09,22,17,07,14.90
2005,09,22,17,08,14.90
2005,09,22,17,09,15.00
2005,09,22,17,10,15.10
2005,09,22,17,11,15.20
2005,09,22,17,12,15.20
2005,09,22,17,13,15.20
2005,09,22,17,14,15.30
2005,09,22,17,15,15.30
2005,09,22,17,16,15.50
2005,09,22,17,17,15.60
2005,09,22,17,18,15.70
2005,09,22,17,19,15.70
2005,09,22,17,20,15.60
2005,09,22,17,21,15.60
2005,09,22,17,22,15.60
2005,09,22,17,23,15.50
2005,09,22,17,24,15.40
2005,09,22,17,25,15.50
2005,09,22,17,26,15.60
2005,09,22,17,27,15.60
2005,09,22,17,28,15.40
2005,09,22,17,29,15.30
2005,09,22,17,30,15.10
2005,09,22,17,31,15.00
2005,09,22,17,32,14.90